WWW216 KBNA-KLIT

Flight info

Callsign WWW216
Flight time N/A
Altitude 36000
Route DANLS4 TPEEE GQE DUMPI
Aircraft B736/M-VGDW/C

Departure

Time 2026-05-04 00:46
Airport Nashville International Airport (KBNA)

Arrival

Time N/A
Airport Bill & Hillary Clinton National Airport/Adams Field (KLIT)
Time Latitude Longitude Altitude Speed Heading
2026-05-03 23:45 36.11987 -86.67086 575 ft 0 kts 134°
2026-05-04 00:40 36.11983 -86.67085 575 ft 1 kts 154°
2026-05-04 00:40 36.11976 -86.67097 575 ft 2 kts 270°
2026-05-04 00:41 36.12000 -86.67108 579 ft 5 kts 345°
2026-05-04 00:41 36.12046 -86.67121 575 ft 8 kts 340°
2026-05-04 00:41 36.12093 -86.67176 580 ft 11 kts 313°
2026-05-04 00:41 36.12148 -86.67244 577 ft 11 kts 314°
2026-05-04 00:42 36.12201 -86.67313 580 ft 11 kts 313°
2026-05-04 00:42 36.12255 -86.67383 579 ft 12 kts 314°
2026-05-04 00:42 36.12318 -86.67465 578 ft 14 kts 314°
2026-05-04 00:42 36.12389 -86.67558 580 ft 15 kts 313°
2026-05-04 00:43 36.12438 -86.67625 579 ft 7 kts 297°
2026-05-04 00:43 36.12418 -86.67682 578 ft 9 kts 215°
2026-05-04 00:43 36.12362 -86.67708 578 ft 6 kts 204°
2026-05-04 00:43 36.12357 -86.67757 577 ft 7 kts 285°
2026-05-04 00:44 36.12376 -86.67828 578 ft 9 kts 288°
2026-05-04 00:44 36.12384 -86.67858 578 ft 0 kts 288°
2026-05-04 00:45 36.12394 -86.67900 578 ft 13 kts 285°
2026-05-04 00:45 36.12356 -86.67986 577 ft 13 kts 201°
2026-05-04 00:45 36.12016 -86.68125 575 ft 95 kts 198°
2026-05-04 00:45 36.11131 -86.68477 596 ft 167 kts 198°
2026-05-04 00:46 36.09999 -86.68883 1619 ft 159 kts 198°
2026-05-04 00:46 36.09045 -86.69458 2755 ft 155 kts 227°
2026-05-04 00:46 36.08377 -86.70654 3263 ft 189 kts 244°
2026-05-04 00:46 36.07853 -86.72307 3590 ft 226 kts 249°
2026-05-04 00:47 36.07299 -86.74234 4033 ft 250 kts 250°
2026-05-04 00:47 36.06771 -86.76301 3993 ft 252 kts 259°
2026-05-04 00:47 36.06793 -86.78446 4044 ft 251 kts 279°
2026-05-04 00:47 36.07125 -86.80596 4648 ft 256 kts 276°
2026-05-04 00:48 36.07294 -86.82769 5901 ft 254 kts 274°
2026-05-04 00:48 36.07429 -86.84978 6946 ft 260 kts 274°
2026-05-04 00:48 36.07566 -86.87229 7981 ft 264 kts 275°
2026-05-04 00:48 36.07711 -86.89504 9033 ft 268 kts 276°
2026-05-04 00:49 36.07864 -86.91820 10050 ft 272 kts 277°
2026-05-04 00:49 36.08028 -86.94218 10676 ft 291 kts 277°
2026-05-04 00:49 36.08210 -86.96809 10895 ft 321 kts 277°
2026-05-04 00:49 36.08413 -86.99680 11113 ft 348 kts 277°
2026-05-04 00:50 36.08629 -87.02765 11452 ft 368 kts 277°
2026-05-04 00:50 36.08850 -87.05945 12160 ft 375 kts 277°
2026-05-04 00:50 36.09066 -87.09079 12981 ft 377 kts 277°
2026-05-04 00:50 36.09291 -87.12326 13819 ft 380 kts 277°
2026-05-04 00:51 36.09518 -87.15597 14518 ft 384 kts 277°
2026-05-04 00:51 36.09742 -87.18856 15203 ft 387 kts 276°
2026-05-04 00:51 36.09733 -87.22219 15895 ft 393 kts 268°
2026-05-04 00:51 36.09273 -87.25575 16580 ft 399 kts 259°
2026-05-04 00:52 36.08595 -87.28921 17258 ft 402 kts 258°
2026-05-04 00:52 36.07899 -87.32260 17907 ft 406 kts 258°
2026-05-04 00:52 36.07191 -87.35654 18531 ft 409 kts 258°
2026-05-04 00:52 36.06491 -87.39033 19106 ft 412 kts 258°
2026-05-04 00:53 36.05786 -87.42468 19705 ft 414 kts 258°
2026-05-04 00:53 36.05080 -87.45923 20284 ft 416 kts 259°
2026-05-04 00:53 36.04372 -87.49404 20849 ft 419 kts 259°
2026-05-04 00:53 36.03659 -87.52912 21387 ft 421 kts 259°
2026-05-04 00:54 36.02942 -87.56440 21918 ft 424 kts 259°
2026-05-04 00:54 36.02229 -87.59942 22435 ft 426 kts 259°
2026-05-04 00:54 36.01502 -87.63509 22951 ft 429 kts 259°
2026-05-04 00:54 36.00769 -87.67096 23450 ft 432 kts 259°
2026-05-04 00:55 36.00029 -87.70713 23893 ft 434 kts 259°
2026-05-04 00:55 35.99285 -87.74339 24304 ft 436 kts 259°
2026-05-04 00:55 35.98538 -87.77976 24727 ft 438 kts 259°
2026-05-04 00:55 35.97786 -87.81633 25139 ft 440 kts 259°
2026-05-04 00:56 35.97029 -87.85308 25545 ft 442 kts 259°
2026-05-04 00:56 35.96278 -87.88947 25933 ft 444 kts 259°
2026-05-04 00:56 35.95513 -87.92646 26307 ft 446 kts 259°
2026-05-04 00:56 35.94744 -87.96364 26658 ft 448 kts 259°
2026-05-04 00:57 35.93971 -88.00086 27001 ft 449 kts 259°
2026-05-04 00:57 35.93195 -88.03819 27428 ft 448 kts 260°
2026-05-04 00:57 35.92421 -88.07533 27935 ft 445 kts 260°
2026-05-04 00:57 35.91652 -88.11217 28471 ft 442 kts 260°
2026-05-04 00:58 35.90884 -88.14897 29004 ft 440 kts 260°
2026-05-04 00:58 35.90120 -88.18558 29521 ft 439 kts 260°
2026-05-04 00:58 35.89368 -88.22148 30038 ft 437 kts 260°
2026-05-04 00:58 35.88616 -88.25773 30500 ft 435 kts 262°
2026-05-04 00:59 35.88116 -88.29474 30939 ft 428 kts 269°
2026-05-04 00:59 35.87878 -88.33077 31374 ft 426 kts 270°
2026-05-04 00:59 35.87652 -88.36712 31815 ft 424 kts 270°
2026-05-04 00:59 35.87423 -88.40345 32257 ft 423 kts 270°
2026-05-04 01:00 35.87187 -88.43953 32700 ft 421 kts 270°
2026-05-04 01:00 35.86944 -88.47556 33078 ft 420 kts 270°
2026-05-04 01:00 35.86700 -88.51104 33451 ft 419 kts 270°
2026-05-04 01:00 35.86450 -88.54684 33857 ft 418 kts 270°
2026-05-04 01:01 35.86199 -88.58250 34230 ft 416 kts 270°
2026-05-04 01:01 35.85947 -88.61814 34535 ft 415 kts 270°
2026-05-04 01:01 35.85695 -88.65363 34814 ft 415 kts 270°
2026-05-04 01:01 35.85445 -88.68874 35094 ft 415 kts 270°
2026-05-04 01:02 35.85192 -88.72417 35386 ft 414 kts 270°
2026-05-04 01:02 35.84939 -88.75958 35665 ft 413 kts 270°
2026-05-04 01:02 35.84684 -88.79495 35939 ft 413 kts 270°
2026-05-04 01:02 35.84402 -88.83022 36047 ft 417 kts 267°
2026-05-04 01:03 35.83816 -88.86556 36065 ft 423 kts 259°
2026-05-04 01:03 35.81836 -88.93376 36053 ft 423 kts 256°
2026-05-04 01:04 35.79775 -89.00140 36059 ft 420 kts 256°
2026-05-04 01:04 35.77755 -89.06839 36061 ft 419 kts 256°
2026-05-04 01:05 35.75694 -89.13532 35890 ft 410 kts 255°
2026-05-04 01:05 35.74692 -89.16772 35965 ft 399 kts 256°
2026-05-04 01:05 35.73735 -89.19939 35834 ft 394 kts 256°
2026-05-04 01:05 35.72791 -89.23103 35565 ft 392 kts 257°
2026-05-04 01:06 35.71855 -89.26255 35311 ft 391 kts 256°
2026-05-04 01:06 35.70919 -89.29399 35065 ft 390 kts 257°
2026-05-04 01:06 35.69999 -89.32480 34825 ft 388 kts 256°
2026-05-04 01:06 35.69064 -89.35599 34582 ft 387 kts 256°
2026-05-04 01:07 35.68128 -89.38712 34339 ft 387 kts 256°
2026-05-04 01:07 35.67194 -89.41811 34101 ft 386 kts 256°
2026-05-04 01:07 35.66260 -89.44909 33836 ft 385 kts 256°
2026-05-04 01:07 35.65326 -89.47998 33560 ft 385 kts 256°
2026-05-04 01:08 35.64394 -89.51081 33290 ft 384 kts 256°
2026-05-04 01:08 35.63463 -89.54154 33019 ft 384 kts 256°
2026-05-04 01:08 35.62528 -89.57239 32755 ft 384 kts 256°
2026-05-04 01:08 35.61604 -89.60283 32493 ft 384 kts 256°
2026-05-04 01:09 35.60670 -89.63357 32246 ft 384 kts 256°
2026-05-04 01:09 35.59719 -89.66440 31927 ft 386 kts 255°
2026-05-04 01:09 35.58743 -89.69506 31679 ft 385 kts 255°
2026-05-04 01:09 35.57802 -89.72590 31429 ft 385 kts 256°
2026-05-04 01:10 35.56888 -89.75635 31192 ft 385 kts 256°